Location: Eferding
(48.3167°N, 14.0167°E)
Time: 19:25:43
(UTC+00:00)

Cosmos 2297 Rocket - Pass Details

Date: 12 November 2019
Orbit: 840 x 843 km, 71.0° (Epoch: 05 December)

Event Time Altitude Azimuth Distance (km) Brightness Sun altitude
Rises 15:55:32 0° 336° (NNW) 3,408 5.4 -4.8°
Reaches altitude 10° 15:58:19 10° 347° (NNW) 2,471 4.6 -5.2°
Maximum altitude 16:03:14 30° 48° (NE) 1,489 3.0 -6.0°
Drops below altitude 10° 16:08:08 10° 108° (ESE) 2,461 4.2 -6.8°
Sets 16:10:53 0° 119° (ESE) 3,393 4.9 -7.2°
